Dewpoint
61 62 50 57 49 45 40 38 29 34 41 39 39 42 40 51 53 52 52 54 52 55 57 59 58 58 56 55 55 56 56 53 54 48 45 55 64 65 64 65 65 66 66 66 66 67 67 69 68 68 68 68 68 68 68 68 68 68 68 67 67 68 68 68 68 68 68 68 68 68 68 69 69 69 68 68 68 68 68 68 68 69 69 69 69 69 69 69 68 68 68 68 68 67 68 68 68
53 46 40 49 46 29 27 34 34 39 40 39 41 45 45 51 53 51 51 52 53 55 58 58 57 58 57 58 58 56 56 57 59 58 60 63 64 64 64 65 66 66 66 66 66 67 67 68 68 67 68 68 68 68 68 68 68 68 68 68 68 68 68 68 68 68 68 67 68 68 68 68 68 68 68 69 69 68 68 68 68 68 68 68 69 69 68 68 67 67 68 68 68 68 68 68 68
47 37 32 33 31 33 35 34 29 36 37 36 40 45 49 49 49 51 52 54 55 58 58 58 59 58 57 58 54 54 52 59 59 60 60 62 60 61 64 66 66 66 66 66 67 67 67 68 68 67 68 67 68 68 68 68 69 69 69 68 68 68 68 68 68 68 68 68 68 68 68 68 67 68 68 68 69 68 68 68 68 67 68 68 69 69 69 68 68 67 67 66 66 66 67 67 67
42 43 32 30 28 34 40 43 38 38 37 38 40 45 49 49 50 52 53 56 57 57 56 56 56 59 57 54 55 57 56 57 61 60 59 61 62 64 65 66 66 66 66 66 66 66 67 68 67 68 68 67 68 68 68 68 68 68 68 68 68 68 68 68 68 68 68 68 68 68 68 68 68 67 67 68 68 68 68 68 68 67 68 68 68 68 68 68 68 67 67 66 66 66 67 67 67
37 44 33 29 27 30 44 42 41 39 39 42 38 44 50 51 51 54 55 58 57 57 56 56 56 58 58 57 57 55 55 60 60 62 61 63 65 65 65 66 66 66 65 66 66 67 66 68 68 68 68 68 68 68 68 68 68 68 68 68 68 68 68 68 68 68 68 68 68 69 68 68 68 67 68 68 68 68 68 68 68 68 68 68 68 68 68 67 67 67 66 67 66 66 67 68 68
31 33 38 30 30 29 44 41 41 41 43 44 44 45 50 52 53 56 54 55 56 57 57 56 55 55 55 57 59 57 60 56 60 61 61 62 64 64 65 67 66 65 65 66 66 66 67 68 68 68 68 68 68 68 68 68 68 68 68 68 68 68 68 68 68 68 68 68 68 68 68 68 68 68 68 68 68 68 68 68 68 68 68 68 68 68 67 68 68 67 67 67 67 67 67 68 68
29 30 30 35 42 46 41 40 41 42 45 48 46 48 51 53 54 56 55 54 55 56 58 55 57 56 53 57 59 61 61 62 60 61 62 63 65 65 65 66 65 64 65 65 65 65 67 68 68 68 68 68 68 68 68 68 69 69 69 68 68 68 69 68 68 68 67 68 68 68 68 68 68 68 68 68 68 68 68 68 68 68 68 68 68 68 68 68 68 67 67 67 67 67 67 67 67
40 27 29 43 43 45 42 41 42 43 45 50 50 51 54 54 55 55 54 54 52 53 55 57 57 54 54 59 54 60 61 62 63 64 63 64 65 65 66 66 64 64 65 65 65 65 68 68 68 69 68 68 68 68 68 69 69 69 68 68 68 68 69 68 68 68 67 68 67 67 68 68 69 69 69 68 68 68 68 68 68 67 67 68 69 69 69 68 68 68 67 67 67 67 68 68 68
30 27 37 43 43 44 41 42 43 47 48 52 53 56 55 56 56 55 53 54 55 56 54 55 56 52 53 55 56 60 61 63 64 64 64 64 64 64 65 65 65 64 65 65 65 64 65 69 68 69 68 69 69 69 69 69 69 68 68 68 68 69 69 68 68 68 68 68 68 68 68 67 68 69 69 69 69 69 68 69 69 69 68 67 68 68 68 69 68 68 68 68 68 68 68 68 68
28 28 32 42 44 41 40 41 41 44 48 52 53 54 55 57 55 55 54 53 53 55 55 55 56 53 55 53 56 58 60 63 63 63 64 64 64 64 65 65 65 64 64 64 65 65 65 68 69 68 68 69 69 68 69 69 69 70 69 70 69 69 69 69 68 67 68 68 69 69 69 69 69 69 69 69 69 69 69 69 69 69 69 69 68 68 68 68 68 68 69 68 68 68 68 68 68
24 26 41 41 40 39 39 40 44 48 50 53 54 56 57 57 54 53 54 54 54 53 54 56 54 54 55 55 56 61 63 62 61 61 63 63 64 65 65 65 65 65 64 64 64 64 64 65 68 68 68 69 69 68 69 69 69 69 70 70 71 70 70 70 69 68 68 66 66 67 68 69 69 69 69 69 69 69 69 69 69 69 69 69 69 69 69 69 69 69 68 69 69 69 69 68 68
23 26 37 39 39 40 40 43 46 49 51 52 52 54 55 55 55 53 54 52 54 53 54 56 53 56 53 54 55 58 60 60 61 62 63 64 64 65 65 65 64 64 64 65 64 64 64 65 65 68 68 69 69 69 69 69 69 70 70 70 71 71 70 69 69 69 68 66 67 68 68 69 69 70 70 69 69 69 69 69 69 69 69 69 69 69 69 69 70 70 70 69 69 69 68 68 68
23 38 40 40 39 43 45 45 46 49 47 48 50 53 54 53 52 54 54 54 55 53 53 56 57 55 50 54 55 58 59 60 62 63 64 64 64 64 64 64 64 64 64 65 63 64 64 64 65 65 68 69 68 69 69 69 69 70 70 70 70 71 70 70 69 69 68 66 68 68 67 68 68 68 68 69 68 68 69 69 68 69 70 69 69 69 69 70 70 70 70 70 70 69 69 69 69
23 32 43 41 43 45 44 44 46 44 45 48 52 54 54 54 55 55 55 53 54 54 56 57 56 56 54 56 54 55 59 61 63 64 64 63 63 63 63 62 62 63 63 63 63 63 64 64 65 65 65 65 65 66 67 68 69 70 70 71 70 70 70 69 70 69 67 66 68 67 66 67 67 67 68 68 69 68 67 68 68 68 67 68 68 69 70 70 70 69 70 70 70 70 69 69 69
22 39 41 42 41 43 44 43 44 43 44 50 52 55 55 55 56 55 54 53 54 57 57 59 59 55 49 52 52 57 60 61 61 62 63 63 63 62 61 61 62 62 62 63 63 63 64 64 64 64 65 64 64 64 64 65 69 70 70 70 70 69 69 69 69 69 65 65 67 67 67 67 67 67 67 68 68 67 67 67 68 67 67 67 67 68 67 67 69 70 70 69 69 69 69 69 69
29 42 42 41 39 42 42 43 46 45 45 53 53 54 54 55 56 55 55 55 56 58 58 55 58 55 56 56 57 60 60 60 61 62 62 61 60 61 61 61 62 62 62 63 63 63 64 64 64 64 64 64 64 64 64 64 66 69 68 68 69 68 68 70 70 68 66 66 67 67 67 67 65 64 67 67 66 67 67 67 68 67 67 67 68 66 66 66 66 67 69 70 70 69 70 70 70
43 43 40 39 38 42 42 44 45 42 48 52 53 53 52 53 55 55 56 56 55 55 56 57 57 59 57 58 60 60 61 63 64 60 60 59 59 60 60 60 62 61 62 62 63 63 64 64 63 63 63 63 63 63 63 63 65 66 65 66 67 66 67 67 68 69 66 65 66 66 66 64 63 62 63 66 66 66 66 67 67 67 67 67 67 66 66 66 67 66 66 65 66 67 68 68 68
42 41 41 39 40 41 44 44 45 48 50 51 52 53 52 51 53 54 56 54 55 55 55 57 58 58 59 59 60 60 61 59 60 59 58 58 58 58 59 59 59 60 60 62 62 63 63 63 63 63 63 63 63 63 63 63 63 64 61 62 64 64 66 66 64 65 65 61 65 64 64 64 62 62 65 67 65 65 64 67 67 67 66 66 67 66 66 66 66 65 65 65 65 65 65 64 66
42 42 41 39 40 43 46 46 48 50 49 51 52 52 52 51 53 53 51 52 52 53 54 56 56 57 59 59 59 59 59 59 59 59 58 58 58 57 57 58 59 60 61 61 62 62 63 63 63 63 63 63 62 62 62 63 61 61 61 62 63 64 64 63 61 63 61 61 63 63 64 63 62 62 64 65 65 65 64 65 66 66 65 65 66 65 65 65 65 64 64 64 64 63 61 62 64
42 43 42 42 44 47 48 49 48 50 51 51 52 52 52 53 53 54 52 52 53 52 52 53 54 55 57 58 58 58 59 59 58 58 58 58 58 58 58 58 59 60 60 62 62 62 63 63 63 63 64 63 62 62 62 62 61 61 62 61 61 61 61 62 61 62 62 62 63 63 63 63 62 62 65 65 65 62 62 64 65 64 64 64 66 63 63 63 64 63 63 63 62 61 60 61 62
42 43 41 44 46 48 49 49 50 51 52 51 52 52 52 53 53 53 52 50 51 53 55 54 54 55 57 58 57 58 57 58 58 57 58 58 58 57 57 58 58 59 60 61 61 62 63 63 63 63 64 63 63 62 62 63 62 62 62 62 61 61 61 62 62 62 63 63 63 64 63 63 62 62 62 62 61 61 61 61 61 61 61 61 65 61 61 61 61 60 60 61 60 60 60 60 61
43 42 45 48 49 49 50 51 52 51 52 51 51 51 51 54 54 53 52 50 50 53 55 56 56 57 57 57 57 57 57 57 57 58 58 57 57 58 59 59 59 59 61 60 60 62 63 63 63 63 64 64 63 62 62 63 62 62 63 63 61 61 61 61 62 62 63 63 63 64 62 61 62 62 62 62 62 61 61 61 61 61 61 62 63 61 61 61 60 60 60 60 60 60 60 60 59
44 45 47 49 49 49 50 51 51 51 51 51 50 52 53 54 53 54 53 52 54 57 57 57 57 57 57 57 56 56 57 58 58 58 58 58 58 58 58 58 58 59 60 60 61 62 64 64 64 64 65 64 63 63 62 62 62 62 63 64 62 61 61 60 60 61 62 62 63 64 62 60 60 61 61 62 62 62 61 61 60 61 61 61 63 61 61 61 61 60 60 60 60 60 60 60 60
46 45 47 47 49 49 51 51 52 52 52 52 53 54 52 51 50 54 53 55 55 57 57 57 57 57 57 56 56 56 57 57 58 59 59 58 58 58 58 59 59 59 60 61 62 62 64 64 64 64 65 64 63 63 63 62 62 62 63 63 62 63 61 60 60 60 60 60 62 62 63 59 59 59 60 61 62 62 61 61 60 60 60 61 62 62 61 61 60 60 60 59 59 59 59 60 60
45 46 48 49 50 51 51 52 52 53 53 53 52 52 52 52 52 53 53 55 56 57 57 57 56 56 56 56 57 57 57 58 58 58 58 58 58 59 59 59 60 60 60 61 62 63 63 64 64 64 64 64 63 63 63 63 62 62 61 61 61 62 59 59 58 57 57 59 59 60 62 57 55 56 57 59 61 60 61 61 60 59 59 60 61 60 61 61 60 60 60 58 58 58 59 59 60
45 47 48 49 50 50 51 52 52 52 52 52 51 51 51 52 52 52 54 55 56 57 56 56 56 56 56 56 57 57 57 57 57 57 57 58 59 59 59 59 60 60 61 61 62 62 63 63 63 63 63 64 63 63 63 63 63 62 62 61 61 61 58 58 56 54 55 56 57 58 58 57 54 53 53 56 59 60 60 60 59 58 58 59 60 59 60 60 60 59 59 58 57 57 58 58 59
47 48 49 49 49 50 51 51 51 51 51 51 50 49 50 51 52 49 54 56 56 55 55 55 55 55 56 56 56 57 57 57 57 56 58 59 59 60 60 60 60 60 61 61 61 62 63 61 61 61 62 64 63 62 63 62 62 62 62 61 60 60 58 56 55 53 52 53 55 56 56 55 53 51 51 52 57 58 59 59 58 58 57 58 59 58 59 59 59 58 58 58 57 57 57 56 57
48 47 47 48 49 50 50 51 50 50 49 50 49 49 50 51 51 51 54 55 56 54 54 54 55 55 55 56 56 56 57 57 57 58 57 58 59 60 60 60 61 60 60 60 61 61 59 59 57 57 58 60 60 61 62 61 61 60 60 60 59 58 58 55 53 52 54 51 52 53 55 55 55 50 51 51 55 56 57 57 56 56 56 57 57 57 57 57 57 56 56 57 57 57 56 55 56
46 47 45 46 47 47 48 49 50 50 47 49 46 44 46 50 49 53 54 54 54 53 53 53 53 53 54 55 56 56 57 58 58 58 58 59 59 60 61 61 61 60 60 60 60 60 58 57 56 55 54 55 55 58 59 60 60 59 57 57 57 56 54 53 53 52 51 50 50 51 53 54 53 51 50 51 54 54 55 55 54 55 55 56 55 55 55 55 55 54 55 56 56 56 55 54 55
46 46 45 45 45 44 46 48 49 47 47 49 46 38 43 49 52 53 55 54 53 52 52 52 52 52 53 55 55 56 57 58 59 59 58 59 60 60 60 60 61 60 60 59 57 57 58 57 55 55 55 53 55 54 56 56 57 59 58 54 55 53 51 50 53 52 52 50 49 50 51 53 51 51 50 50 51 52 53 53 53 53 55 55 54 54 53 53 53 53 54 54 55 54 54 54 54
43 43 41 40 38 38 45 48 49 46 47 47 49 40 44 50 51 53 54 54 52 51 51 51 52 52 53 54 55 56 57 58 59 59 60 60 60 60 60 60 60 60 58 56 55 54 54 54 54 52 54 51 52 52 52 54 54 55 56 53 52 51 51 49 49 50 50 50 49 48 50 54 51 51 51 51 51 52 52 53 53 53 55 54 52 52 52 52 52 51 53 53 54 54 53 54 54
42 38 37 38 39 39 44 47 46 44 46 48 45 41 43 49 50 52 54 54 51 51 52 51 51 52 52 53 54 56 57 58 58 58 59 59 60 60 60 59 59 58 56 55 53 51 50 52 51 49 49 50 51 53 51 53 53 52 53 55 51 51 49 48 49 49 49 49 49 48 49 53 51 51 51 51 51 52 51 52 52 53 54 54 52 51 52 50 51 50 51 52 53 52 53 53 54
39 38 35 37 38 39 42 44 47 46 46 47 44 40 45 47 51 53 54 53 52 50 51 51 50 51 52 53 54 56 57 58 57 58 60 59 60 60 60 59 59 58 56 53 51 49 49 50 50 48 48 49 50 51 51 51 52 51 51 51 51 50 48 48 48 49 48 49 49 48 49 52 51 50 51 52 52 53 51 52 52 52 54 54 52 51 50 51 50 49 49 51 52 52 52 52 53
36 39 36 38 40 40 40 43 46 47 47 45 47 45 46 48 51 52 53 53 51 50 50 50 50 51 52 54 56 56 57 57 58 58 59 59 59 59 59 61 58 57 55 54 52 50 50 50 51 51 47 48 49 50 51 50 51 50 50 49 53 48 48 48 47 48 48 48 49 49 49 49 52 50 51 52 52 54 52 52 52 52 53 53 51 50 49 50 50 50 49 49 51 51 51 51 52
35 36 38 38 40 41 40 40 45 47 47 47 47 48 48 48 50 52 53 54 52 51 50 51 51 52 53 53 55 56 56 58 59 59 59 58 58 58 58 57 56 55 54 53 52 51 50 50 50 50 50 48 47 48 50 49 49 49 48 49 47 48 48 48 47 47 48 48 48 48 49 50 50 50 51 52 52 54 52 52 52 52 52 53 49 48 47 49 49 49 48 48 50 50 51 52 52
39 39 39 39 39 39 42 43 46 46 45 44 45 45 46 47 48 51 53 53 50 51 51 50 51 51 52 54 56 56 57 58 59 58 58 58 58 58 57 56 54 53 53 53 53 51 50 49 48 48 49 49 49 47 48 47 47 48 47 47 47 47 48 50 47 47 48 48 49 48 48 49 49 52 50 51 51 54 52 51 51 51 51 52 49 46 47 46 47 47 47 47 48 49 49 50 52
40 40 40 41 41 41 42 44 46 48 45 45 45 45 45 47 49 50 51 50 50 50 50 50 52 53 54 55 56 57 57 57 58 57 57 57 58 58 57 55 53 53 52 51 51 51 50 49 48 47 48 49 50 48 47 47 47 47 48 47 48 47 48 49 47 47 48 49 48 47 48 49 48 49 51 51 51 52 52 51 50 50 50 51 50 47 47 47 47 47 47 48 48 48 48 49 51
41 41 41 40 41 41 43 44 45 45 44 44 45 45 46 47 49 50 50 50 49 49 49 50 53 54 55 56 56 56 56 56 57 56 57 57 57 56 56 55 56 51 53 51 50 50 49 49 48 48 48 47 49 50 47 47 48 48 48 47 48 47 45 47 46 47 49 49 48 47 48 47 48 49 51 51 51 50 50 49 49 49 48 49 51 47 47 48 46 47 47 47 48 48 48 49 50
41 40 40 40 39 42 44 45 46 47 46 43 45 44 44 47 48 50 50 50 49 50 50 51 53 54 55 55 55 54 54 54 54 55 55 56 55 55 55 54 53 53 52 51 50 48 48 47 47 48 47 46 47 51 48 47 48 47 48 47 47 47 47 48 47 48 48 48 48 47 48 47 47 48 48 51 50 48 49 48 47 47 47 48 48 46 46 46 46 46 47 47 46 47 48 49 49
40 40 40 39 41 41 38 42 46 45 44 43 44 43 42 45 47 49 50 50 50 51 51 51 52 54 54 54 53 53 53 52 54 53 54 54 54 54 54 54 53 53 52 50 49 48 48 50 47 46 46 46 46 50 51 47 49 48 48 48 48 47 47 51 47 47 47 48 47 47 47 47 47 48 48 48 51 48 47 46 46 45 45 47 48 46 45 45 46 46 47 47 47 46 46 47 48
40 41 40 40 40 40 41 41 43 44 44 45 42 39 38 41 44 45 48 51 51 51 51 51 52 52 52 52 53 53 54 53 52 53 54 53 53 53 53 53 52 51 51 50 50 48 48 47 47 46 45 46 45 49 48 48 48 45 46 47 48 48 47 46 46 45 46 48 48 46 47 47 47 48 48 48 48 48 46 45 44 44 44 45 48 46 45 45 45 46 46 47 46 47 46 47 47
38 39 41 41 42 42 42 43 41 37 38 43 38 28 32 37 41 44 46 48 49 50 50 50 51 52 52 52 53 54 54 53 54 54 54 53 52 52 51 51 50 49 49 50 49 48 47 46 46 45 45 45 46 46 48 49 46 45 45 45 44 44 44 44 45 45 45 46 46 47 46 46 47 48 48 47 47 48 46 44 44 43 44 44 48 46 44 45 45 45 46 46 46 47 47 47 46
37 38 44 42 42 43 42 41 39 33 33 38 38 31 28 33 40 42 45 47 47 50 50 50 51 51 51 52 52 52 53 53 54 53 53 52 51 52 51 51 50 49 49 49 47 46 46 46 45 45 46 45 46 46 46 51 46 46 45 45 46 44 45 45 46 47 46 47 46 46 46 47 47 47 48 47 46 46 46 44 43 43 44 44 47 45 44 44 44 45 46 46 46 48 47 46 46
36 39 43 43 43 42 41 40 38 35 40 40 41 35 32 29 35 41 45 46 46 48 49 50 50 51 51 52 52 53 53 52 53 52 52 51 51 51 52 51 51 50 49 48 46 46 45 44 43 44 45 47 44 47 45 48 48 46 46 45 48 45 46 45 46 47 47 49 46 46 46 46 46 47 47 46 45 45 46 45 43 43 43 43 47 45 44 45 45 45 46 46 46 48 47 47 47
36 43 43 43 42 42 41 40 38 37 37 32 34 37 32 28 32 42 45 44 45 48 49 50 50 51 51 52 53 53 54 53 53 52 51 51 52 52 52 52 52 52 50 48 47 45 45 44 45 43 43 44 44 46 47 45 49 47 46 46 45 46 47 47 48 46 46 46 45 45 46 46 46 47 47 46 45 44 45 45 43 42 43 44 47 44 44 45 45 45 45 45 46 46 47 48 48
43 43 43 43 42 42 42 38 36 34 32 28 33 35 29 26 30 40 42 42 44 46 48 50 51 51 51 53 53 54 53 53 52 52 52 52 52 52 52 51 50 50 50 51 46 44 43 43 45 44 43 43 44 44 45 45 46 48 45 45 46 45 45 45 45 45 45 45 44 45 45 46 46 47 47 46 45 44 44 43 43 42 43 44 46 44 44 45 45 45 45 45 46 46 46 47 48
44 42 41 39 40 40 40 36 34 32 23 29 34 36 32 28 32 41 41 42 44 45 46 48 50 51 52 53 54 54 53 52 52 52 52 52 51 51 50 49 49 49 48 48 45 43 42 42 42 41 43 43 44 44 45 45 45 45 45 45 46 45 44 44 44 44 44 44 44 44 45 46 46 47 46 46 44 43 44 43 43 42 44 45 45 44 44 44 45 45 45 45 46 46 46 46 48
42 43 39 37 37 33 34 30 32 27 25 29 31 37 34 28 30 35 43 44 45 46 47 48 50 51 52 52 54 54 53 52 52 51 50 49 49 49 48 47 47 46 46 45 44 43 42 41 41 41 42 43 44 45 45 45 45 45 45 45 45 46 45 44 44 44 44 44 44 44 45 45 46 46 45 44 44 43 44 43 43 42 43 43 44 44 45 45 45 44 45 45 45 46 46 47 47
40 38 36 33 27 27 25 27 25 26 26 30 37 37 32 31 32 36 41 44 45 46 48 49 50 51 52 53 53 53 52 52 51 49 49 48 48 48 47 46 45 44 44 44 44 43 42 41 41 41 42 43 44 44 44 44 45 45 45 44 45 48 45 44 44 44 44 44 44 44 44 45 46 46 45 43 43 42 43 43 43 42 42 43 44 44 44 44 44 44 45 45 45 46 46 47 48
38 36 32 28 25 21 20 20 24 25 28 34 36 37 32 34 35 38 39 43 45 47 48 50 51 51 52 53 53 52 51 51 50 49 48 48 48 48 47 45 44 43 43 44 45 44 42 41 42 41 42 43 44 44 44 44 44 45 45 44 45 46 45 44 44 45 44 44 45 44 44 45 46 46 44 43 42 42 42 43 43 43 43 44 44 44 44 44 44 44 45 45 45 46 47 48 50
38 34 31 31 27 24 19 23 21 23 28 32 36 32 30 29 32 39 41 42 45 47 49 50 51 52 52 52 52 51 51 50 49 49 48 48 48 47 47 45 42 42 42 42 42 42 41 41 41 41 42 43 44 44 44 44 44 44 44 44 44 46 46 44 44 46 44 43 44 44 45 45 46 45 44 43 42 42 42 42 43 43 43 43 43 43 43 43 43 44 45 45 46 47 48 50 50
36 35 30 28 28 31 26 27 26 27 29 28 32 30 32 34 38 45 45 45 47 49 50 51 51 52 52 51 51 51 51 51 50 49 48 48 48 48 46 43 41 41 41 42 42 43 43 42 42 42 42 43 44 45 44 44 44 44 44 43 44 46 46 44 45 44 43 44 44 44 44 45 46 46 44 43 42 42 41 42 43 43 42 42 42 42 43 43 43 43 44 45 46 47 48 50 50
34 32 32 32 32 32 28 28 30 30 27 23 24 33 34 38 39 44 46 46 48 49 49 50 51 52 51 51 51 51 51 51 50 49 48 48 49 48 45 42 41 42 40 40 41 42 42 41 41 41 42 43 44 45 43 44 44 43 43 43 43 43 43 42 43 43 42 43 44 44 44 45 46 45 43 43 42 41 41 43 42 42 41 41 41 42 42 42 42 43 44 45 45 46 49 49 50
33 31 33 33 35 34 29 24 24 22 23 22 30 31 31 30 29 41 44 45 47 48 49 50 50 51 51 51 51 51 51 51 50 49 49 49 49 49 46 42 39 38 38 38 39 41 41 40 40 41 42 42 43 43 44 43 43 43 43 43 42 42 42 42 42 42 42 42 43 44 44 44 45 44 43 42 42 41 41 43 41 41 41 41 41 41 42 41 42 42 43 45 45 46 48 49 49
33 33 37 30 24 25 26 26 19 21 20 20 27 31 32 33 34 40 41 44 46 47 48 49 49 50 50 50 50 51 51 51 50 49 49 49 49 47 43 40 41 42 40 38 38 40 41 42 42 41 41 42 43 44 44 43 43 43 43 43 42 42 42 42 42 43 42 41 42 43 43 44 46 46 43 42 41 41 41 41 41 41 40 40 40 41 41 41 41 42 43 44 45 45 47 47 48
29 30 29 32 29 29 25 27 27 25 16 20 23 29 28 35 36 40 41 44 46 47 47 48 49 50 50 50 50 50 51 50 50 49 49 49 49 47 42 40 37 37 37 38 38 38 39 41 42 42 42 42 42 42 43 42 42 42 42 42 41 41 42 42 42 41 41 41 42 43 43 43 45 46 43 42 41 41 40 39 39 40 39 39 40 40 40 40 41 42 42 43 44 45 45 46 47
31 28 27 28 31 31 30 30 26 24 20 20 20 20 26 32 38 41 41 43 46 47 47 48 49 49 50 50 50 51 50 50 50 49 49 48 48 46 42 39 38 42 44 39 37 37 39 40 40 41 41 41 42 42 42 42 42 41 42 41 41 41 41 41 41 41 41 41 42 45 43 43 42 43 45 43 42 41 40 39 39 39 38 39 39 39 40 40 41 41 42 43 44 44 45 45 46
31 29 27 28 28 26 22 24 31 31 27 24 21 22 27 31 40 42 42 44 46 47 47 48 48 49 49 50 51 51 50 50 49 49 47 46 45 43 39 40 38 36 35 35 36 38 38 39 40 41 41 41 41 42 42 41 42 41 41 41 41 40 40 41 41 41 42 41 42 43 43 42 41 41 42 43 42 42 40 39 38 38 38 38 38 38 39 39 40 41 41 43 44 44 45 44 44